[[{"header":{"parameterUnit":"m.s-1","parameterCategory":1,"la1":30.2991,"la2":30.254,"lo1":-89.0895,"lo2":-89.0444,"dy":0.0017,"dx":0.0017,"nx":28,"ny":28,"refTime":"2025-04-23T21:00:00:Z","depth":0,"parameterNumber":2,"parameterNumberName":"U-component_of_WINDS"},"data":[0,0,0,0,0,0,0,0,0,0,0,0,0,0,0,0,0,0,0,0,0,0,0,0,0,0,0,0,0,0,0,0,0,0,0,0,0,0,0,0,0,0,0,0,0,0,0,0,0,0,0,0,0,0,0,0,0,0,-2.4158,-2.4159,0,-2.42,-2.4201,-2.4201,-2.4167,-2.4165,-2.4164,-2.4162,-2.4205,-2.4208,-2.421,0,0,0,0,0,0,0,0,0,0,0,0,0,-2.4048,-2.4051,-2.4158,-2.4159,-2.4159,-2.42,-2.4201,-2.4201,-2.4167,-2.4165,-2.4163,-2.4162,-2.4204,-2.4207,-2.421,0,0,0,0,0,0,0,0,0,0,0,0,0,-2.4094,-2.4051,-2.4158,-2.4147,-2.4146,-2.42,-2.4201,-2.4201,-2.4167,-2.4165,-2.4163,-2.4161,-2.4203,-2.4207,-2.4211,-2.4278,0,0,-2.4222,-2.4224,0,0,0,0,0,0,0,0,-2.4091,-2.4098,-2.4148,-2.4148,-2.4147,-2.4176,-2.4178,-2.4227,-2.4168,-2.4159,-2.4162,-2.416,-2.4197,-2.4201,-2.4214,-2.428,-2.4281,-2.4222,-2.4225,-2.4226,-2.4227,0,0,0,0,0,0,0,-2.4088,-2.4096,-2.4175,-2.4149,-2.4148,-2.414,-2.4144,-2.4187,-2.419,-2.416,-2.4157,-2.4163,-2.4197,-2.421,-2.4215,-2.4282,-2.4222,-2.4226,-2.4228,-2.4229,-2.4405,-2.4407,0,0,0,0,0,0,-2.4086,-2.4093,-2.4173,-2.4176,-2.4113,-2.4144,-2.4148,-2.4169,-2.4189,-2.419,-2.4165,-2.4161,-2.4205,-2.421,-2.4216,-2.4295,-2.4226,-2.423,-2.4232,-2.4402,-2.4405,-2.4408,0,0,0,0,0,0,-2.4084,-2.4094,-2.4172,-2.4134,-2.4143,-2.4148,-2.4171,-2.4171,-2.4185,-2.4193,-2.4193,-2.4178,-2.4204,-2.4211,-2.4263,-2.4296,-2.4232,-2.4235,-2.44,-2.4403,-2.4407,-2.4455,0,0,0,0,0,0,-2.4081,-2.4093,-2.4118,-2.4135,-2.4146,-2.4217,-2.4174,-2.4173,-2.4191,-2.4187,-2.4206,-2.4207,-2.4202,-2.4257,-2.4266,-2.43,-2.4238,-2.4397,-2.4401,-2.4405,-2.445,-2.4459,-2.4467,0,0,0,0,0,-2.4077,-2.413,-2.412,-2.4129,-2.4177,-2.4219,-2.4225,-2.4219,-2.4194,-2.422,-2.4225,-2.4206,-2.4292,-2.4263,-2.4273,-2.4308,-2.4394,-2.44,-2.4405,-2.4446,-2.4458,-2.4467,0,0,0,0,0,0,-2.4117,-2.4132,-2.4121,-2.418,-2.4199,-2.4213,-2.4245,-2.4232,-2.4257,-2.4252,-2.4244,-2.4248,-2.4303,-2.4311,-2.4279,-2.4374,-2.4339,-2.4347,-2.4367,-2.4378,-2.4386,-2.4382,-2.4241,0,0,0,0,0,-2.4133,-2.4165,-2.4177,-2.4229,-2.4239,-2.4241,-2.4259,-2.4252,-2.4271,-2.4279,-2.4288,-2.4307,-2.4338,-2.4358,-2.4388,-2.4452,-2.4455,-2.4481,-2.449,-2.4497,-2.4503,-2.4538,-2.455,-2.4426,-2.4426,-2.4426,0,0,-2.4165,-2.4178,-2.4199,-2.4237,-2.425,-2.4285,-2.4247,-2.4285,-2.431,-2.4284,-2.4333,-2.4341,-2.4362,-2.442,-2.4446,-2.4429,-2.4539,-2.4504,-2.451,-2.4512,-2.4545,-2.4556,-2.4567,-2.4429,-2.4429,-2.4428,0,0,-2.4242,-2.4255,-2.4299,-2.4314,-2.4335,-2.4336,-2.4347,-2.4364,-2.4368,-2.4418,-2.4399,-2.4429,-2.4483,-2.4498,-2.4513,-2.4598,-2.4581,-2.4608,-2.4653,-2.4686,-2.4696,-2.4705,-2.4734,-2.4745,-2.4614,-2.4614,-2.4614,0,-2.428,-2.433,-2.4324,-2.4363,-2.438,-2.4359,-2.4404,-2.4419,-2.4448,-2.4461,-2.4441,-2.4508,-2.4521,-2.4582,-2.4603,-2.4616,-2.4628,-2.4604,-2.4695,-2.4704,-2.4712,-2.474,-2.4751,-2.4617,-2.4617,-2.4617,-2.4616,0,-2.4376,-2.4411,-2.4445,-2.4474,-2.4495,-2.4537,-2.4537,-2.456,-2.4552,-2.4556,-2.4607,-2.4621,-2.4653,-2.4667,-2.466,-2.4728,-2.4717,-2.4697,-2.466,-2.4727,-2.4753,-2.4763,-2.4622,-2.462,-2.462,-2.4619,0,0,-2.4477,-2.4503,-2.4515,-2.4528,-2.4551,-2.4578,-2.462,-2.4651,-2.467,-2.4692,-2.4726,-2.4773,-2.4755,-2.4772,-2.4766,-2.4796,-2.4862,-2.4772,-2.4773,-2.4788,-2.4937,-2.4951,-2.4964,-2.4852,-2.4854,-2.4855,-2.4935,0,-2.4554,-2.4625,-2.4621,-2.4688,-2.4721,-2.4703,-2.4739,-2.4757,-2.4761,-2.479,-2.4795,-2.4828,-2.4802,-2.4812,-2.4841,-2.4847,-2.4891,-2.4842,-2.4883,-2.4885,-2.4877,-2.4977,-2.4992,-2.5066,-2.4945,-2.4947,-2.4948,0,-2.4653,-2.4678,-2.4749,-2.4767,-2.478,-2.4813,-2.4841,-2.4869,-2.4889,-2.4891,-2.4911,-2.4901,-2.4943,-2.4907,-2.4965,-2.4932,-2.4949,-2.4955,-2.4957,-2.496,-2.4919,-2.4981,-2.509,-2.5101,-2.4964,-2.4963,-2.4962,0,-2.4718,-2.477,-2.4819,-2.4831,-2.4853,-2.4877,-2.4887,-2.4905,-2.4925,-2.495,-2.4962,-2.4992,-2.5008,-2.5032,-2.5031,-2.5005,-2.509,-2.5054,-2.5092,-2.5092,-2.5109,-2.5107,-2.5221,-2.5122,-2.5122,-2.5122,-2.5121,0,-2.4804,-2.4848,-2.4849,-2.4879,-2.4927,-2.4923,-2.4971,-2.4979,-2.4996,-2.5027,-2.5013,-2.5043,-2.504,-2.5071,-2.507,-2.5118,-2.5126,-2.5128,-2.5127,-2.5128,-2.5128,-2.5138,-2.5133,-2.5125,-2.5124,-2.5123,-2.5123,0,-2.4885,-2.4887,-2.4939,-2.4957,-2.4962,-2.4997,-2.5012,-2.5041,-2.5045,-2.5085,-2.5094,-2.5101,-2.5135,-2.5137,-2.5177,-2.5177,-2.5235,-2.5229,-2.5228,-2.5227,-2.5264,-2.526,-2.5387,-2.5403,-2.5295,-2.5296,-2.5297,0,-2.4938,-2.4971,-2.4993,-2.5013,-2.5025,-2.5057,-2.5077,-2.5074,-2.5095,-2.5121,-2.5147,-2.5181,-2.5207,-2.5264,-2.5273,-2.5304,-2.5298,-2.534,-2.5302,-2.5303,-2.5297,-2.5295,-2.5298,-2.5347,-2.5348,-2.5349,-2.535,0,-2.5033,-2.5033,-2.5062,-2.5092,-2.5115,-2.5139,-2.516,-2.5178,-2.5178,-2.5202,-2.5238,-2.5259,-2.53,-2.5334,-2.5364,-2.5375,-2.5363,-2.5362,-2.5372,-2.5373,-2.5371,-2.5372,-2.5247,-2.5359,-2.5358,-2.5357,-2.5357,-2.5356,-2.5101,-2.513,-2.515,-2.5182,-2.5198,-2.5219,-2.5247,-2.5255,-2.5284,-2.5318,-2.5315,-2.5354,-2.5375,-2.5414,-2.5428,-2.5459,-2.5444,-2.5459,-2.5463,-2.5466,-2.547,-2.5367,-2.5465,-2.5464,-2.5464,-2.5464,-2.5464,0,-2.5195,-2.5207,-2.5237,-2.5268,-2.5294,-2.528,-2.5304,-2.5326,-2.5361,-2.5381,-2.5408,-2.5449,-2.5482,-2.5494,-2.5526,-2.5549,-2.5544,-2.5557,-2.5555,-2.5557,-2.5482,-2.5469,-2.5561,-2.5561,-2.556,-2.556,-2.556,-2.556,-2.5246,-2.5294,-2.5297,-2.5352,-2.5364,-2.5403,-2.5417,-2.5436,-2.5452,-2.5499,-2.5526,-2.5534,-2.5551,-2.5584,-2.5614,-2.5616,-2.5628,-2.5644,-2.5644,-2.5573,-2.5563,-2.5553,-2.5542,-2.5647,-2.5647,-2.5717,-2.5718,-2.5719]},{"header":{"parameterUnit":"m.s-1","parameterCategory":1,"la1":30.2991,"la2":30.254,"lo1":-89.0895,"lo2":-89.0444,"dy":0.0017,"dx":0.0017,"nx":28,"ny":28,"refTime":"2025-04-23T21:00:00:Z","depth":0,"parameterNumber":3,"parameterNumberName":"V-component_of_WINDS"},"data":[0,0,0,0,0,0,0,0,0,0,0,0,0,0,0,0,0,0,0,0,0,0,0,0,0,0,0,0,0,0,0,0,0,0,0,0,0,0,0,0,0,0,0,0,0,0,0,0,0,0,0,0,0,0,0,0,0,0,2.3497,2.3497,0,2.3546,2.3546,2.3547,2.353,2.3528,2.3527,2.3526,2.3572,2.3575,2.3577,0,0,0,0,0,0,0,0,0,0,0,0,0,2.3385,2.3387,2.3497,2.3497,2.3498,2.3546,2.3546,2.3547,2.353,2.3528,2.3527,2.3526,2.3572,2.3574,2.3577,0,0,0,0,0,0,0,0,0,0,0,0,0,2.3433,2.3388,2.3496,2.3495,2.3495,2.3545,2.3546,2.3547,2.353,2.3528,2.3527,2.3525,2.3571,2.3574,2.3577,2.363,0,0,2.3588,2.3589,0,0,0,0,0,0,0,0,2.3431,2.3437,2.3495,2.3495,2.3496,2.353,2.3524,2.3575,2.353,2.3517,2.3526,2.3524,2.3559,2.3563,2.3576,2.3632,2.3634,2.3588,2.359,2.3591,2.3592,0,0,0,0,0,0,0,2.3427,2.3435,2.3516,2.3495,2.3496,2.3491,2.3496,2.3533,2.3546,2.3518,2.3517,2.3523,2.3559,2.3573,2.3577,2.3635,2.3588,2.3591,2.3593,2.3594,2.3738,2.3739,0,0,0,0,0,0,2.3424,2.3433,2.3514,2.3517,2.3459,2.3494,2.35,2.352,2.3546,2.3548,2.3524,2.3522,2.3568,2.3573,2.3579,2.3642,2.3591,2.3594,2.3596,2.3736,2.3738,2.374,0,0,0,0,0,0,2.3422,2.3432,2.3512,2.3475,2.3485,2.3498,2.3521,2.3522,2.3536,2.3551,2.3553,2.3536,2.3567,2.3574,2.3618,2.3644,2.3596,2.3599,2.3734,2.3736,2.3739,2.377,0,0,0,0,0,0,2.3419,2.3431,2.3452,2.3475,2.3487,2.3552,2.3523,2.3524,2.3542,2.354,2.3562,2.3565,2.3566,2.3613,2.3621,2.3647,2.3602,2.3731,2.3735,2.3738,2.3767,2.3773,2.3779,0,0,0,0,0,2.3415,2.3457,2.3453,2.3463,2.3513,2.3553,2.356,2.3562,2.3544,2.3565,2.3575,2.3564,2.364,2.3618,2.3627,2.3654,2.373,2.3734,2.3738,2.3764,2.3772,2.3779,0,0,0,0,0,0,2.3435,2.346,2.3456,2.3508,2.3529,2.355,2.3576,2.357,2.3596,2.3592,2.3592,2.3598,2.3643,2.3653,2.3628,2.3707,2.3682,2.3688,2.3699,2.3707,2.3713,2.3709,2.3604,0,0,0,0,0,2.3446,2.3477,2.3497,2.3541,2.3552,2.3563,2.358,2.358,2.3602,2.361,2.3623,2.3643,2.3671,2.3689,2.3716,2.3769,2.3773,2.3792,2.3798,2.3803,2.3808,2.3837,2.3845,2.3753,2.3753,2.3753,0,0,2.3467,2.3485,2.3505,2.3546,2.3562,2.3594,2.357,2.3604,2.3628,2.3614,2.3657,2.3668,2.369,2.3738,2.376,2.3748,2.3835,2.3809,2.3812,2.3815,2.3842,2.385,2.3858,2.3756,2.3756,2.3755,0,0,2.3523,2.3541,2.3579,2.3597,2.3622,2.3629,2.3639,2.3662,2.3669,2.3712,2.3703,2.373,2.3779,2.3795,2.381,2.3874,2.3865,2.3883,2.3915,2.3943,2.395,2.3956,2.3979,2.3987,2.3888,2.3888,2.3888,0,2.3547,2.3595,2.3599,2.3635,2.3653,2.3645,2.3683,2.37,2.3732,2.3744,2.3731,2.3793,2.3807,2.3859,2.3875,2.3887,2.3897,2.388,2.3949,2.3955,2.3961,2.3983,2.3991,2.389,2.389,2.389,2.3889,0,2.3623,2.3657,2.3685,2.3719,2.374,2.3777,2.3785,2.3806,2.3805,2.3813,2.3857,2.3875,2.3905,2.3918,2.3916,2.397,2.3962,2.3949,2.3923,2.3972,2.3992,2.4,2.3893,2.3892,2.3892,2.3891,0,0,2.3691,2.3728,2.3738,2.3754,2.3782,2.3808,2.3844,2.3876,2.3894,2.3917,2.3947,2.3989,2.3978,2.3995,2.3995,2.4019,2.4069,2.4003,2.4004,2.4014,2.4129,2.4138,2.4148,2.4063,2.4065,2.4066,2.4127,0,2.3749,2.3815,2.382,2.3879,2.391,2.3903,2.3935,2.3956,2.3965,2.3991,2.4001,2.4031,2.4013,2.4024,2.4048,2.4058,2.4092,2.4053,2.409,2.4091,2.4084,2.4158,2.4168,2.4224,2.4135,2.4136,2.4137,0,2.3825,2.3853,2.3915,2.394,2.3954,2.3982,2.4012,2.4038,2.4061,2.4066,2.4086,2.4083,2.4119,2.4094,2.4144,2.4118,2.4133,2.4141,2.4143,2.4145,2.4116,2.4162,2.4242,2.425,2.415,2.4149,2.4148,0,2.3869,2.3921,2.3965,2.3979,2.4009,2.4029,2.4043,2.4064,2.4083,2.4109,2.4121,2.415,2.4166,2.4188,2.4192,2.4174,2.4243,2.4217,2.4247,2.4246,2.426,2.4259,2.4343,2.4272,2.4272,2.4272,2.4271,0,2.3932,2.3971,2.3985,2.4012,2.4055,2.406,2.4102,2.4114,2.4133,2.4162,2.4158,2.4184,2.419,2.4217,2.4221,2.4262,2.4269,2.4273,2.4273,2.4273,2.4272,2.4282,2.4278,2.4274,2.4273,2.4273,2.4272,0,2.3987,2.3999,2.4047,2.4072,2.408,2.411,2.4131,2.4157,2.4166,2.4202,2.4211,2.4224,2.4257,2.4264,2.4302,2.4305,2.4353,2.435,2.4346,2.4345,2.4374,2.4371,2.4466,2.4479,2.44,2.4401,2.4401,0,2.4027,2.4056,2.4086,2.4106,2.4121,2.4152,2.4172,2.4178,2.4199,2.4228,2.425,2.4282,2.4308,2.436,2.4373,2.4402,2.4399,2.443,2.4403,2.4402,2.4398,2.4396,2.4399,2.4435,2.4436,2.4437,2.4437,0,2.4096,2.41,2.413,2.4162,2.4186,2.4211,2.4235,2.4251,2.4261,2.4284,2.4318,2.4338,2.4378,2.441,2.4439,2.4452,2.4446,2.4446,2.4454,2.4453,2.445,2.4452,2.4359,2.4443,2.4443,2.4442,2.4442,2.4442,2.4144,2.417,2.4195,2.4228,2.4248,2.427,2.4296,2.4309,2.4338,2.4372,2.4374,2.4411,2.4433,2.4472,2.4487,2.4515,2.4505,2.4517,2.452,2.4522,2.4525,2.4446,2.452,2.452,2.452,2.452,2.452,0,2.4212,2.4229,2.4259,2.4294,2.432,2.4314,2.4341,2.4362,2.4395,2.4418,2.4444,2.4483,2.4514,2.453,2.456,2.458,2.4578,2.4587,2.4585,2.4588,2.4532,2.4522,2.4588,2.4588,2.4588,2.4588,2.4588,2.4588,2.4251,2.4295,2.4303,2.4356,2.4372,2.4409,2.4425,2.4445,2.4463,2.4508,2.4534,2.4545,2.4564,2.4597,2.4625,2.4628,2.4639,2.465,2.4653,2.4599,2.4592,2.4586,2.4576,2.4653,2.4653,2.4706,2.4707,2.4707]}]]